EST,Max TemperatureF,Mean TemperatureF,Min TemperatureF,Max Dew PointF,MeanDew PointF,Min DewpointF,Max Humidity, Mean Humidity, Min Humidity, Max Sea Level PressureIn, Mean Sea Level PressureIn, Min Sea Level PressureIn, Max VisibilityMiles, Mean VisibilityMiles, Min VisibilityMiles, Max Wind SpeedMPH, Mean Wind SpeedMPH, Max Gust SpeedMPH,PrecipitationIn, CloudCover, Events, WindDirDegrees
2014-1-1,51,40,28,37,32,28,100,85,41,30.44,30.33,30.16,10,10,1,7,1,,0.00,0,,153
2014-1-2,48,42,37,45,39,37,100,87,66,30.16,29.84,29.54,10,8,1,12,1,16,0.00,5,,204
2014-1-3,42,32,21,43,15,3,100,55,30,30.51,30.15,29.55,10,10,7,20,10,32,0.00,3,,344
2014-1-4,42,30,17,28,19,10,100,67,34,30.56,30.46,30.31,10,10,10,8,1,,0.00,2,,161
2014-1-5,64,48,33,64,46,27,100,81,70,30.30,30.10,29.79,10,10,5,13,3,20,0.00,7,,158
2014-1-6,66,44,21,64,41,1,100,73,31,30.09,29.75,29.59,10,9,2,23,14,33,0.00,5,,252
2014-1-7,24,18,12,7,-3,-9,63,40,26,30.51,30.38,30.11,10,10,10,18,13,30,0.00,0,,270
2014-1-8,39,26,14,19,10,1,86,57,24,30.64,30.55,30.49,10,10,10,6,1,,0.00,0,,219
2014-1-9,51,38,24,30,21,12,100,64,22,30.61,30.56,30.52,10,10,10,12,2,,0.00,1,,75
2014-1-10,59,44,30,57,39,30,100,91,76,30.50,30.34,30.12,10,8,2,10,1,,0.00,7,,80
2014-1-11,73,65,57,70,61,54,100,92,78,30.11,29.79,29.58,10,8,0,23,8,47,0.00,7,,187
2014-1-12,57,47,35,54,38,32,100,67,44,30.17,29.95,29.62,10,10,10,14,7,23,0.00,0,,266
2014-1-13,62,47,32,46,37,32,100,70,37,30.21,30.10,29.98,10,10,10,17,4,22,0.00,0,,188
2014-1-14,55,47,37,54,50,46,100,92,77,29.98,29.86,29.73,10,7,0,13,4,18,0.00,7,,230
2014-1-15,57,46,35,52,44,41,100,76,55,30.01,29.93,29.85,10,6,0,8,1,,0.00,4,,156
2014-1-16,44,36,28,43,33,28,100,88,70,30.04,29.97,29.89,10,10,7,12,6,20,0.00,5,,350
2014-1-17,55,42,30,37,31,27,100,70,36,30.04,29.96,29.85,10,10,10,13,6,17,0.00,0,,184
2014-1-18,48,37,26,45,24,12,100,63,36,30.04,29.93,29.78,10,10,5,21,8,28,0.00,2,,274
2014-1-19,53,40,26,27,23,18,74,51,33,30.02,29.93,29.85,10,10,10,14,5,20,0.00,1,,218
2014-1-20,64,50,37,34,28,25,81,48,24,29.89,29.81,29.71,10,10,10,15,5,22,0.00,0,,224
2014-1-21,53,38,24,43,32,21,93,76,61,29.85,29.70,29.55,10,9,1,17,7,28,0.00,4,,29
2014-1-22,24,16,8,21,5,-4,93,58,31,30.14,29.99,29.78,10,9,2,16,8,25,0.00,1,,326
2014-1-23,35,22,10,14,10,0,100,59,34,30.44,30.25,30.12,10,10,10,15,3,22,0.00,1,,296
2014-1-24,26,19,12,3,-2,-6,57,40,24,30.60,30.46,30.27,10,10,10,8,6,16,0.00,1,,292
2014-1-25,37,27,17,18,8,3,54,43,30,30.26,29.87,29.61,10,10,10,21,10,30,0.00,1,,214
2014-1-26,50,36,23,28,16,7,70,43,19,30.00,29.89,29.76,10,10,10,14,7,21,0.00,0,,217
2014-1-27,64,47,30,37,29,5,75,50,32,30.14,29.87,29.76,10,10,10,17,7,24,0.00,2,,210
2014-1-28,30,22,15,16,5,-9,93,50,24,30.40,30.29,30.15,10,7,0,14,8,18,0.00,7,,17
2014-1-29,24,18,10,14,7,0,100,65,34,30.39,30.29,30.18,10,8,0,13,5,21,0.00,3,,339
2014-1-30,33,14,-4,21,10,-8,93,71,35,30.47,30.37,30.25,10,10,2,9,2,,0.00,1,,62
2014-1-31,48,30,12,25,17,10,100,65,22,30.25,30.20,30.14,10,9,0,7,0,,0.00,1,,218